KK5DC Weather Reports


time (UTC)temp
F
wind
direction
speed
knots
gust
knots
rain 1hr
in
rain 24hr
in
rain mn
in
humidity
%
barometer
mb
20260504151013 73 202 5.2 13.0 0.00 0.00 0.00 67 1015.5
20260504151008 73 232 0.9 5.2 0.00 0.00 0.00 67 1016.0
20260504150513 73 179 4.3 13.0 0.00 0.00 0.00 67 1015.7
20260504150507 73 123 1.7 5.2 0.00 0.00 0.00 67 1016.3
20260504141006 68 139 4.3 11.3 0.00 0.00 0.00 73 1015.8
20260504140504 67 207 4.3 10.4 0.00 0.00 0.00 73 1015.8
20260504130504 62 168 2.6 6.1 0.00 0.00 0.00 79 1015.8
20260504110504 56 186 0.0 0.0 0.00 0.00 0.00 86 1015.8
20260504100504 59 202 0.0 1.7 0.00 0.00 0.00 82 1016.2
20260504082008 60 156 1.7 3.5 0.00 0.00 0.00 79 1016.0
20260504081522 60 158 1.7 5.2 0.00 0.00 0.00 78 1016.1
20260504081520 60 175 0.0 2.6 0.00 0.00 0.00 78 1016.6
20260504081011 60 198 0.0 1.7 0.00 0.00 0.00 79 1016.7
20260504081002 60 167 0.9 5.2 0.00 0.00 0.00 79 1016.2
20260504080507 60 176 0.9 3.5 0.00 0.00 0.00 79 1016.5
20260504050509 63 148 1.7 7.0 0.00 0.00 0.00 73 1018.0
20260504050504 63 108 0.0 4.3 0.00 0.00 0.00 73 1018.5
20260504050021 63 164 0.9 2.6 0.00 0.00 0.00 72 1018.6
20260504050019 63 167 1.7 7.0 0.00 0.00 0.00 72 1018.2
20260504045507 63 166 1.7 7.8 0.00 0.00 0.00 72 1018.3
20260504045504 63 204 0.0 2.6 0.00 0.00 0.00 72 1018.7
20260504045009 63 265 0.9 1.7 0.00 0.00 0.00 72 1018.7
20260504045007 63 157 1.7 7.8 0.00 0.00 0.00 72 1018.3
20260504044535 63 165 0.0 1.7 0.00 0.00 0.00 72 1018.7
20260504044526 63 158 1.7 7.8 0.00 0.00 0.00 72 1018.3
20260504044008 63 164 0.9 4.3 0.00 0.00 0.00 72 1018.8
20260504043507 64 180 2.6 6.1 0.00 0.00 0.00 72 1018.4
20260504043033 64 153 1.7 8.7 0.00 0.00 0.00 72 1018.4
20260504043030 64 178 0.9 2.6 0.00 0.00 0.00 72 1018.8
20260504042511 64 179 0.0 2.6 0.00 0.00 0.00 72 1018.8
20260504042006 64 161 0.9 3.5 0.00 0.00 0.00 72 1018.9
20260504042003 64 182 3.5 7.0 0.00 0.00 0.00 72 1018.4
20260504041524 64 122 1.7 6.1 0.00 0.00 0.00 71 1018.4
20260504041511 64 200 0.0 4.3 0.00 0.00 0.00 71 1018.8
20260504041006 64 180 0.0 4.3 0.00 0.00 0.00 71 1018.9
20260504040509 64 130 2.6 7.0 0.00 0.00 0.00 71 1018.6
20260504040502 64 183 0.0 3.5 0.00 0.00 0.00 71 1019.0
20260504040020 64 12 0.9 3.5 0.00 0.00 0.00 70 1019.1
20260504040018 64 148 2.6 5.2 0.00 0.00 0.00 70 1018.6
20260504035511 64 185 0.0 3.5 0.00 0.00 0.00 70 1019.0
20260504035508 64 134 1.7 3.5 0.00 0.00 0.00 70 1018.5
20260504035009 64 174 0.9 5.2 0.00 0.00 0.00 69 1018.5
20260504035007 64 191 0.9 3.5 0.00 0.00 0.00 69 1019.0
20260504034524 64 163 0.0 2.6 0.00 0.00 0.00 69 1019.0
20260504034517 64 163 1.7 7.0 0.00 0.00 0.00 69 1018.5
20260504034011 64 234 0.0 2.6 0.00 0.00 0.00 69 1019.0
20260504033513 64 169 0.0 2.6 0.00 0.00 0.00 68 1018.9
20260504033511 64 148 1.7 4.3 0.00 0.00 0.00 68 1018.4
20260504033029 65 151 1.7 6.1 0.00 0.00 0.00 68 1018.3
20260504033012 65 190 0.9 4.3 0.00 0.00 0.00 68 1018.8
20260504032507 65 156 1.7 6.1 0.00 0.00 0.00 67 1018.5
20260504032011 65 148 0.9 4.3 0.00 0.00 0.00 67 1018.4
20260504031532 65 190 0.0 2.6 0.00 0.00 0.00 66 1018.7
20260504031530 65 159 1.7 4.3 0.00 0.00 0.00 66 1018.2
20260504031013 65 154 0.9 4.3 0.00 0.00 0.00 66 1018.3
20260504031005 65 203 0.0 1.7 0.00 0.00 0.00 66 1018.7
20260504030512 64 123 0.9 4.3 0.00 0.00 0.00 67 1018.2
20260504030504 64 184 0.0 1.7 0.00 0.00 0.00 67 1018.8
20260504030027 64 138 1.7 6.1 0.00 0.00 0.00 69 1018.2
20260504030014 64 136 0.0 1.7 0.00 0.00 0.00 69 1018.7
20260504025509 63 131 1.7 6.1 0.00 0.00 0.00 69 1018.2
20260504025506 63 113 0.0 2.6 0.00 0.00 0.00 69 1018.6
20260504025006 62 213 0.0 2.6 0.00 0.00 0.00 70 1018.7
20260504024523 62 137 0.0 1.7 0.00 0.00 0.00 72 1018.7
20260504024503 62 140 0.0 1.7 0.00 0.00 0.00 72 1018.1
20260504024012 62 212 0.0 1.7 0.00 0.00 0.00 74 1018.8
20260504024004 62 148 0.0 1.7 0.00 0.00 0.00 74 1018.1
20260504023507 61 189 0.0 0.0 0.00 0.00 0.00 72 1018.8
20260504023503 61 158 0.0 1.7 0.00 0.00 0.00 72 1018.1
20260504023025 61 189 0.0 0.0 0.00 0.00 0.00 74 1018.7
20260504023003 61 155 0.0 0.0 0.00 0.00 0.00 74 1018.0
20260504022513 61 189 0.0 0.0 0.00 0.00 0.00 74 1018.7
20260504022502 61 155 0.0 0.0 0.00 0.00 0.00 74 1018.0
20260504022009 62 189 0.0 0.0 0.00 0.00 0.00 76 1018.6
20260504022002 62 155 0.0 0.0 0.00 0.00 0.00 76 1017.9
20260504021525 62 189 0.0 0.0 0.00 0.00 0.00 73 1018.4
20260504021508 62 155 0.0 1.7 0.00 0.00 0.00 73 1017.6
20260504021006 62 189 0.0 0.0 0.00 0.00 0.00 73 1018.4
20260504021001 62 155 0.0 1.7 0.00 0.00 0.00 73 1017.6
20260504020510 62 189 0.0 0.0 0.00 0.00 0.00 74 1018.3
20260504020504 62 155 0.0 1.7 0.00 0.00 0.00 74 1017.4
20260504020015 63 189 0.0 0.9 0.00 0.00 0.00 71 1018.3
20260504020013 63 155 0.0 1.7 0.00 0.00 0.00 71 1017.4
20260504015506 63 155 0.0 1.7 0.00 0.00 0.00 71 1017.3
20260504015503 63 189 0.0 1.7 0.00 0.00 0.00 71 1018.3
20260504015007 63 189 0.0 1.7 0.00 0.00 0.00 71 1018.3
20260504015004 63 155 0.0 1.7 0.00 0.00 0.00 71 1017.3
20260504014518 64 189 0.0 0.0 0.00 0.00 0.00 69 1018.3
20260504014513 64 155 0.0 1.7 0.00 0.00 0.00 69 1017.3
20260504014008 64 189 0.0 0.0 0.00 0.00 0.00 69 1018.3
20260504014006 64 155 0.0 1.7 0.00 0.00 0.00 69 1017.3
20260504013506 64 189 0.0 0.0 0.00 0.00 0.00 68 1018.3
20260504013502 64 155 0.0 1.7 0.00 0.00 0.00 68 1017.3
20260504013032 65 189 0.0 1.7 0.00 0.00 0.00 66 1018.1
20260504013017 65 155 0.0 1.7 0.00 0.00 0.00 66 1017.2
20260504012504 65 189 0.0 1.7 0.00 0.00 0.00 66 1018.2
20260504012502 65 155 0.0 1.7 0.00 0.00 0.00 66 1017.3
20260504012008 66 189 0.0 1.7 0.00 0.00 0.00 65 1018.2
20260504012003 66 155 0.0 1.7 0.00 0.00 0.00 66 1017.3
20260504011524 66 205 0.0 1.7 0.00 0.00 0.00 64 1018.1
20260504011515 66 155 0.0 1.7 0.00 0.00 0.00 64 1017.2
20260504011009 67 212 0.0 1.7 0.00 0.00 0.00 64 1018.2
20260504011001 67 155 0.0 1.7 0.00 0.00 0.00 64 1017.3
20260504010504 67 153 0.0 0.0 0.00 0.00 0.00 63 1018.1
20260504010025 68 153 0.0 0.0 0.00 0.00 0.00 58 1018.1
20260504010003 68 155 0.0 1.7 0.00 0.00 0.00 58 1017.1
20260504005507 69 156 0.0 1.7 0.00 0.00 0.00 60 1018.1
20260504005503 69 155 0.0 1.7 0.00 0.00 0.00 60 1017.1
20260504005009 70 155 0.0 1.7 0.00 0.00 0.00 57 1017.2
20260504005003 70 156 0.0 1.7 0.00 0.00 0.00 57 1018.1
20260504004520 71 155 0.0 1.7 0.00 0.00 0.00 55 1017.2
20260504004516 71 163 0.0 1.7 0.00 0.00 0.00 55 1018.2
20260504004005 71 164 0.0 1.7 0.00 0.00 0.00 55 1018.2
20260504004002 71 155 0.0 1.7 0.00 0.00 0.00 55 1017.2
20260504003508 72 121 0.0 1.7 0.00 0.00 0.00 52 1018.2
20260504003506 72 155 0.0 1.7 0.00 0.00 0.00 52 1017.3
20260504003023 72 156 0.0 1.7 0.00 0.00 0.00 51 1017.3
20260504003019 72 134 0.0 0.9 0.00 0.00 0.00 51 1018.2
20260504002508 72 213 0.0 1.7 0.00 0.00 0.00 50 1018.3
20260504002502 72 156 0.0 1.7 0.00 0.00 0.00 50 1017.5
20260504002009 72 156 0.0 3.5 0.00 0.00 0.00 50 1017.6
20260504002004 72 213 0.0 1.7 0.00 0.00 0.00 50 1018.4
20260504001518 73 213 0.0 1.7 0.00 0.00 0.00 48 1018.5
20260504001504 73 156 0.9 4.3 0.00 0.00 0.00 48 1017.7
20260504001009 74 214 0.0 1.7 0.00 0.00 0.00 46 1018.5
20260504001002 74 184 1.7 4.3 0.00 0.00 0.00 46 1017.7
20260504000505 74 128 0.0 3.5 0.00 0.00 0.00 46 1018.5
20260504000502 74 145 1.7 6.1 0.00 0.00 0.00 46 1017.7
20260504000009 75 159 0.9 3.5 0.00 0.00 0.00 44 1018.6
20260503235504 75 179 0.0 2.6 0.00 0.00 0.00 44 1018.7
20260503235502 75 172 1.7 6.1 0.00 0.00 0.00 44 1017.9
20260503235004 75 286 0.0 2.6 0.00 0.00 0.00 47 1018.7
20260503234512 75 175 1.7 6.1 0.00 0.00 0.00 45 1017.9
20260503234508 75 190 0.0 3.5 0.00 0.00 0.00 45 1018.8
20260503234006 75 165 0.9 3.5 0.00 0.00 0.00 47 1018.7
20260503234003 75 142 1.7 3.5 0.00 0.00 0.00 47 1017.9
20260503233507 75 170 0.9 4.3 0.00 0.00 0.00 46 1018.8
20260503233007 75 197 0.9 4.3 0.00 0.00 0.00 43 1018.7
20260503232507 75 173 1.7 9.6 0.00 0.00 0.00 43 1017.8
20260503232503 75 232 0.0 4.3 0.00 0.00 0.00 43 1018.6
20260503232013 75 259 0.9 5.2 0.00 0.00 0.00 41 1018.5
20260503232006 75 134 1.7 11.3 0.00 0.00 0.00 41 1017.7
20260503231525 76 153 5.2 11.3 0.00 0.00 0.00 42 1017.7
20260503231522 76 149 0.9 5.2 0.00 0.00 0.00 42 1018.6
20260503231005 77 162 0.0 5.2 0.00 0.00 0.00 40 1018.6
20260503231003 77 164 2.6 8.7 0.00 0.00 0.00 40 1017.9
20260503230505 77 201 1.7 5.2 0.00 0.00 0.00 1018.6
20260503230503 77 196 5.2 9.6 0.00 0.00 0.00 1017.7
20260503230025 78 187 1.7 6.1 0.00 0.00 0.00 1018.7
20260503230008 78 181 6.1 13.0 0.00 0.00 0.00 1017.9
20260503225505 78 156 4.3 13.0 0.00 0.00 0.00 1018.1
20260503225501 78 190 0.9 6.1 0.00 0.00 0.00 1018.8
20260503225005 78 197 3.5 8.7 0.00 0.00 0.00 1018.0
20260503225002 78 204 0.9 4.3 0.00 0.00 0.00 1018.8
20260503224515 79 200 5.2 11.3 0.00 0.00 0.00 1018.1
20260503224511 79 192 2.6 4.3 0.00 0.00 0.00 1018.9
20260503224005 79 181 0.9 5.2 0.00 0.00 0.00 41 1018.9
20260503223505 79 174 1.7 5.2 0.00 0.00 0.00 41 1018.9
20260503223503 79 165 4.3 8.7 0.00 0.00 0.00 41 1018.1
20260503223018 78 159 4.3 8.7 0.00 0.00 0.00 40 1018.3
20260503222508 79 196 0.9 2.6 0.00 0.00 0.00 41 1019.1
20260503222506 79 167 3.5 8.7 0.00 0.00 0.00 41 1018.4
20260503222010 80 163 0.9 6.1 0.00 0.00 0.00 42 1019.1
20260503222003 80 157 2.6 8.7 0.00 0.00 0.00 42 1018.3
20260503221522 80 182 1.7 6.1 0.00 0.00 0.00 37 1019.1
20260503221515 80 206 5.2 8.7 0.00 0.00 0.00 37 1018.4
20260503221009 80 158 0.9 4.3 0.00 0.00 0.00 40 1019.2
20260503220512 80 171 5.2 10.4 0.00 0.00 0.00 38 1018.6
20260503220510 80 169 1.7 4.3 0.00 0.00 0.00 38 1019.2
20260503220028 80 144 3.5 7.0 0.00 0.00 0.00 41 1018.6
20260503220012 80 177 0.9 4.3 0.00 0.00 0.00 41 1019.3
20260503215510 80 202 4.3 7.0 0.00 0.00 0.00 36 1018.7
20260503215506 80 240 1.7 4.3 0.00 0.00 0.00 36 1019.4
20260503215008 80 235 0.9 4.3 0.00 0.00 0.00 37 1019.5
20260503215002 80 200 2.6 8.7 0.00 0.00 0.00 37 1018.9
20260503214511 78 135 1.7 8.7 0.00 0.00 0.00 40 1019.0
20260503214508 78 171 0.9 4.3 0.00 0.00 0.00 40 1019.6
20260503214008 79 173 0.9 4.3 0.00 0.00 0.00 43 1019.6
20260503214003 79 159 2.6 8.7 0.00 0.00 0.00 43 1019.1
20260503213507 79 136 1.7 9.6 0.00 0.00 0.00 39 1019.0
20260503213026 79 123 1.7 3.5 0.00 0.00 0.00 41 1019.7
20260503213017 79 167 2.6 9.6 0.00 0.00 0.00 41 1019.1
20260503212504 79 211 4.3 9.6 0.00 0.00 0.00 39 1019.3
20260503212010 81 172 7.0 9.6 0.00 0.00 0.00 38 1019.4
20260503212006 81 107 0.9 4.3 0.00 0.00 0.00 38 1020.1
20260503211522 81 200 2.6 10.4 0.00 0.00 0.00 38 1019.5
20260503211520 81 242 0.9 3.5 0.00 0.00 0.00 38 1020.2
20260503211011 81 190 0.9 4.3 0.00 0.00 0.00 39 1020.2
20260503211003 81 182 5.2 10.4 0.00 0.00 0.00 39 1019.6
20260503210507 80 144 1.7 10.4 0.00 0.00 0.00 36 1019.5
20260503210505 80 149 0.9 6.1 0.00 0.00 0.00 36 1020.1
20260503210021 81 133 2.6 9.6 0.00 0.00 0.00 37 1019.6
20260503205509 81 155 0.9 2.6 0.00 0.00 0.00 37 1020.2
20260503205507 81 143 2.6 6.1 0.00 0.00 0.00 37 1019.6
20260503205010 80 196 0.9 4.3 0.00 0.00 0.00 36 1020.3
20260503205004 80 211 3.5 7.0 0.00 0.00 0.00 36 1019.7
20260503204524 80 210 0.9 4.3 0.00 0.00 0.00 40 1020.4
20260503204522 80 174 3.5 8.7 0.00 0.00 0.00 40 1019.8
20260503204011 81 78 0.9 3.5 0.00 0.00 0.00 39 1020.5
20260503204004 81 136 5.2 8.7 0.00 0.00 0.00 39 1019.9
20260503203505 81 5 0.9 7.8 0.00 0.00 0.00 38 1020.1
20260503203502 81 104 1.7 4.3 0.00 0.00 0.00 38 1020.7
20260503203012 80 144 1.7 4.3 0.00 0.00 0.00 40 1020.7
20260503203010 80 185 1.7 7.8 0.00 0.00 0.00 40 1020.0
20260503202509 80 234 1.7 6.1 0.00 0.00 0.00 34 1020.7
20260503202506 80 207 2.6 7.0 0.00 0.00 0.00 34 1020.0
20260503202008 81 155 1.7 6.1 0.00 0.00 0.00 38 1020.8
20260503201524 81 146 1.7 5.2 0.00 0.00 0.00 40 1020.8
20260503201513 81 215 6.1 7.8 0.00 0.00 0.00 40 1020.2
20260503201008 81 182 1.7 5.2 0.00 0.00 0.00 40 1021.0
20260503200509 81 147 2.6 9.6 0.00 0.00 0.00 40 1020.4
20260503200507 81 159 1.7 4.3 0.00 0.00 0.00 40 1021.0
20260503200030 81 184 0.9 5.2 0.00 0.00 0.00 40 1021.1
20260503200024 81 180 5.2 9.6 0.00 0.00 0.00 40 1020.5
20260503195508 80 134 2.6 9.6 0.00 0.00 0.00 1020.4
20260503195506 80 198 1.7 5.2 0.00 0.00 0.00 1021.1
20260503195012 80 36 1.7 4.3 0.00 0.00 0.00 1021.3
20260503194529 81 122 0.9 3.5 0.00 0.00 0.00 1021.4
20260503194525 81 80 2.6 8.7 0.00 0.00 0.00 1020.6
20260503194010 81 191 0.9 5.2 0.00 0.00 0.00 1021.5
20260503194005 81 163 3.5 10.4 0.00 0.00 0.00 1020.7
20260503193508 81 90 1.7 10.4 0.00 0.00 0.00 38 1020.7
20260503193506 81 57 0.9 5.2 0.00 0.00 0.00 38 1021.5
20260503193022 80 217 0.9 5.2 0.00 0.00 0.00 38 1021.5
20260503193013 80 176 2.6 12.2 0.00 0.00 0.00 38 1020.9
20260503192505 81 151 3.5 12.2 0.00 0.00 0.00 40 1021.0
20260503192503 81 130 0.9 5.2 0.00 0.00 0.00 40 1021.7
20260503192010 80 267 1.7 5.2 0.00 0.00 0.00 38 1021.7
20260503192004 80 148 4.3 9.6 0.00 0.00 0.00 38 1021.1
20260503191528 81 128 2.6 8.7 0.00 0.00 0.00 41 1021.2
20260503191520 81 180 0.9 5.2 0.00 0.00 0.00 41 1021.8
20260503191007 80 146 1.7 5.2 0.00 0.00 0.00 38 1021.9
20260503191004 80 352 3.5 8.7 0.00 0.00 0.00 38 1021.3
20260503190507 80 156 0.9 4.3 0.00 0.00 0.00 42 1021.9
20260503190504 80 175 3.5 7.8 0.00 0.00 0.00 42 1021.4
20260503190023 80 192 0.9 5.2 0.00 0.00 0.00 39 1022.0
20260503190017 80 160 3.5 7.8 0.00 0.00 0.00 39 1021.4
20260503185507 79 201 3.5 8.7 0.00 0.00 0.00 38 1021.4
20260503185006 80 101 1.7 4.3 0.00 0.00 0.00 1022.1
20260503184521 79 186 1.7 3.5 0.00 0.00 0.00 38 1022.2
20260503184518 79 145 2.6 7.8 0.00 0.00 0.00 38 1021.5
20260503184010 80 158 3.5 7.0 0.00 0.00 0.00 38 1021.7
20260503184007 80 168 0.9 3.5 0.00 0.00 0.00 38 1022.2
20260503183517 79 183 0.9 4.3 0.00 0.00 0.00 39 1022.3
20260503183514 79 130 0.9 7.0 0.00 0.00 0.00 41 1021.7
20260503183025 80 135 1.7 4.3 0.00 0.00 0.00 36 1022.4
20260503183014 80 110 2.6 7.0 0.00 0.00 0.00 36 1021.9
20260503182507 79 202 0.9 5.2 0.00 0.00 0.00 38 1022.4
20260503182011 79 215 0.9 5.2 0.00 0.00 0.00 35 1022.6
20260503181525 80 119 0.9 3.5 0.00 0.00 0.00 39 1022.8
20260503181514 80 171 2.6 7.8 0.00 0.00 0.00 39 1022.2
20260503181005 79 146 0.9 11.3 0.00 0.00 0.00 39 1022.3
20260503180507 79 185 2.6 4.3 0.00 0.00 0.00 42 1022.9
20260503180021 79 152 2.6 7.8 0.00 0.00 0.00 41 1022.3
20260503180017 79 169 1.7 4.3 0.00 0.00 0.00 41 1023.0
20260503175507 80 103 1.7 4.3 0.00 0.00 0.00 46 1023.1
20260503175502 80 215 4.3 7.8 0.00 0.00 0.00 42 1022.4
20260503175010 79 62 0.9 3.5 0.00 0.00 0.00 40 1023.1
20260503175002 79 127 0.9 6.1 0.00 0.00 0.00 40 1022.4
20260503174524 79 84 0.9 6.1 0.00 0.00 0.00 48 1023.1
20260503174505 79 182 2.6 8.7 0.00 0.00 0.00 48 1022.5
20260503174006 78 210 0.9 6.1 0.00 0.00 0.00 42 1023.2
20260503173508 79 152 0.9 3.5 0.00 0.00 0.00 44 1023.4
20260503173503 79 156 4.3 8.7 0.00 0.00 0.00 44 1022.8
20260503173042 78 161 0.9 3.5 0.00 0.00 0.00 43 1023.4
20260503173002 78 81 1.7 7.0 0.00 0.00 0.00 43 1022.8
20260503172511 78 163 1.7 3.5 0.00 0.00 0.00 43 1023.6
20260503172505 78 148 2.6 7.0 0.00 0.00 0.00 43 1022.8
20260503172006 78 216 1.7 10.4 0.00 0.00 0.00 43 1023.0
20260503172003 78 111 0.9 3.5 0.00 0.00 0.00 43 1023.7
20260503171520 78 117 0.9 6.1 0.00 0.00 0.00 45 1023.9
20260503171503 78 144 1.7 10.4 0.00 0.00 0.00 45 1023.0
20260503171006 77 117 0.9 6.1 0.00 0.00 0.00 43 1023.9
20260503171003 77 86 0.9 7.8 0.00 0.00 0.00 43 1023.0
20260503170506 76 192 0.9 3.5 0.00 0.00 0.00 43 1023.9
20260503170503 76 153 3.5 8.7 0.00 0.00 0.00 43 1023.1